Location: La Chapelle
(48.3135°N, 1.3085°W)
Time: 00:32:51
(UTC+00:00)

USA 234 - Pass Details

Date: 03 March 2021
Orbit: 1102 x 1105 km, 123.0° (Epoch: 13 April)

Event Time Altitude Azimuth Distance (km) Brightness Sun altitude
Exits shadow 19:39:57 21° 65° (ENE) 2,259 4.4 -18.6°
Maximum altitude 19:44:25 58° 138° (SE) 1,270 3.3 -19.3°
Drops below altitude 10° 19:50:50 10° 217° (SW) 2,955 5.8 -20.3°
Sets 19:53:22 0° 221° (SW) 3,910 6.5 -20.7°
